Location: Oakhurst
(33.6448°N, 111.9543°W)
Time: 15:27:23
(UTC+00:00)

Oscar 19 - Visible Passes

Search period start: 03 August 2021 00:00
Search period end: 13 August 2021 00:00
Orbit: 773 x 790 km, 98.7° (Epoch: 03 August)

Date Brightness Start Highest point End Pass type
(mag) Time Alt. Az. Time Alt. Az. Time Alt. Az.
03 Aug 10.5 10:24:10 10° NNE 10:29:22 87° WNW 10:30:18 61° SSW visible
04 Aug 11.4 09:52:27 10° NNE 09:57:24 44° E 09:57:53 42° ESE visible
04 Aug 12.2 11:32:45 10° NNW 11:36:18 19° WNW 11:38:26 15° W visible
05 Aug 12.6 09:21:27 10° NE 09:25:17 21° E 09:25:29 21° E visible
05 Aug 11.3 10:59:52 10° N 11:04:37 38° WNW 11:06:02 32° WSW visible
06 Aug 10.5 10:27:37 10° N 10:32:48 81° WNW 10:33:37 64° SSW visible
07 Aug 11.3 09:55:51 10° NNE 10:00:51 47° E 10:01:12 46° ESE visible
07 Aug 12.3 11:36:21 10° NNW 11:39:42 18° WNW 11:41:45 14° W visible
08 Aug 12.5 09:24:45 10° NE 09:28:46 22° E 09:28:48 22° E visible
08 Aug 11.4 11:03:22 10° N 11:08:03 35° WNW 11:09:20 31° W visible
09 Aug 10.5 10:31:04 10° N 10:36:15 75° WNW 10:36:55 65° SW visible
10 Aug 11.2 09:59:16 10° NNE 10:04:19 51° E 10:04:31 51° ESE visible
10 Aug 12.3 11:39:58 10° NNW 11:43:07 16° WNW 11:45:03 14° W visible
11 Aug 12.4 09:28:04 10° NE 09:32:06 24° E 09:32:06 24° E visible
11 Aug 11.4 11:06:53 10° N 11:11:29 33° WNW 11:12:38 30° W visible
12 Aug 13.3 08:58:48 10° ENE 08:59:41 11° E 08:59:41 11° E visible
12 Aug 10.5 10:34:31 10° N 10:39:42 70° WNW 10:40:13 64° WSW visible
